Flag for Germany Weather past 2 weeks in Dannenberg, Lower Saxony, Germany

Now
39 °F

Thunderstorms. Partly cloudy.


Feels Like: 29 °F
Forecast: 38 / 45 °F
Wind: 21 mph from West

Location: Mecklenburg-Vorpommern - Parchim

Current Time: Dec 20, 2014 at 8:42:49 PM

Latest Report: Dec 20, 2014 at 5:50 PM


Visibility: N/A

Pressure: 29.71 "Hg

Humidity: 87%

Dew point: 36 °F

Location of DannenbergLocation

Historic Weather in Dannenberg — Graph

°F

Dannenberg temperature yesterday

Maximum temperature yesterday: 54 °F (at 5:50 AM)
Minimum temperature yesterday: 45 °F (at 4:20 PM)
Average temperature yesterday: 50 °F

Past Weeks' High & Low Weather Summary

 TemperatureHumidityPressure
High54 °F (Dec 19, 5:50 AM)100% (Dec 6, 9:50 AM)30.33 "Hg (Dec 6, 9:50 AM)
Low32 °F (Dec 15, 5:20 AM)71% (Dec 20, 9:50 AM)29.24 "Hg (Dec 12, 2:20 PM)
Average40 °F90%29.80 "Hg
* Reported Dec 5 5:20 PM — Dec 20 5:50 PM, Dannenberg, Weather by CustomWeather, © 2014

Note: Actual official high and low records may vary slightly from our data, if they occured in-between our weather recording intervals... More about our weather records

Advertising

Dannenberg weather history for previous 24 hours

 ConditionsComfort  
Time TempWeatherWind HumidityBarometerVisibility
5:50 PM
Dec 20
39 °FThunderstorms. Partly cloudy.21 mph87%29.71 "HgN/A
5:20 PM37 °FPassing clouds.13 mph93%29.68 "HgN/A
4:50 PM39 °FPassing clouds.20 mph87%29.68 "HgN/A
4:20 PM39 °FLight rain. Partly cloudy.18 mph93%29.68 "HgN/A
3:50 PM37 °FLight rain. Cloudy.15 mph100%29.68 "HgN/A
3:20 PM36 °FLight rain. Low clouds.16 mph93%29.68 "HgN/A
2:20 PM34 °FLow clouds.14 mph100%29.68 "HgN/A
1:50 PM34 °FLow clouds.14 mph100%29.71 "HgN/A
1:20 PM34 °FLight rain. Mostly cloudy.18 mph100%29.71 "HgN/A
12:50 PM34 °FLight rain. Mostly cloudy.16 mph100%29.74 "HgN/A
12:20 PM34 °FLight rain. Partly sunny.15 mph100%29.74 "HgN/A
11:50 AM34 °FPartly sunny.13 mph100%29.74 "HgN/A
11:20 AM34 °FSnow. Partly sunny.16 mph93%29.74 "Hg2 mi
10:50 AM43 °FRain. Overcast.28 mph81%29.71 "HgN/A
10:20 AM45 °FLight rain. Partly sunny.28 mph76%29.71 "HgN/A
9:50 AM45 °FPartly sunny.26 mph71%29.71 "HgN/A
9:20 AM43 °FPartly sunny.25 mph76%29.74 "HgN/A
8:50 AM43 °FPartly sunny.29 mph76%29.74 "HgN/A
8:20 AM43 °FPassing clouds.24 mph81%29.74 "HgN/A
7:50 AM43 °FMostly cloudy.25 mph81%29.74 "HgN/A
7:20 AM43 °FLight rain. Overcast.23 mph81%29.77 "HgN/A
6:50 AM41 °FLight rain. Passing clouds.26 mph87%29.77 "HgN/A
6:20 AM41 °FLight rain. Passing clouds.23 mph87%29.77 "HgN/A
5:50 AM43 °FPassing clouds.24 mph81%29.77 "HgN/A
5:20 AM43 °FPassing clouds.22 mph81%29.80 "HgN/A
Weather by CustomWeather, © 2014

See weather overviewHow to use our weather pages